|
NORAD ID: 35916 Int'l Code: 1997-051TZ
Perigee: 727.1 km
Apogee: 732.3 km
Inclination: 86.4 °
Period: 99.2 minutes
Semi major axis: 7100 km
Launch date: September 14, 1997
Source: United States (US)
Note: This is SATELLITE DEBRIS
Two Line Element Set (TLE):
1 35916U 97051TZ 13145.56374226 .00012376 00000-0 31257-2 0 2357
2 35916 086.3906 181.5894 0003630 346.5302 165.1780 14.50942765197726
Source:
NASA's NSSDC Master Catalog entry for IRIDIUM 33 DEB
|